Time,TemperatureF,DewpointF,PressureIn,WindDirection,WindDirectionDegrees,WindSpeedMPH,WindSpeedGustMPH,Humidity,HourlyPrecipIn,Conditions,Clouds,dailyrainin,SolarRadiationWatts/m^2,SoftwareType,DateUTC
2013-09-24 00:02:00,50.7,47.9,30.03,ENE,76,0.0,0.0,90,0.00,CLR,,0.00,0.0,WeatherDisplay:10.37,2013-09-24 05:02:00,
2013-09-24 00:07:00,50.5,47.7,30.03,ENE,76,0.0,0.0,90,0.00,CLR,,0.00,0.0,WeatherDisplay:10.37,2013-09-24 05:07:00,
2013-09-24 00:12:00,50.5,47.7,30.03,ENE,76,0.2,1.2,90,0.00,CLR,,0.00,0.0,WeatherDisplay:10.37,2013-09-24 05:12:00,
2013-09-24 00:18:00,50.4,47.6,30.03,ENE,76,0.0,0.0,90,0.00,CLR,,0.00,0.0,WeatherDisplay:10.37,2013-09-24 05:18:00,
2013-09-24 00:23:00,50.2,47.4,30.03,ENE,76,0.0,0.0,90,0.00,CLR,,0.00,0.0,WeatherDisplay:10.37,2013-09-24 05:23:00,
2013-09-24 00:28:00,50.2,47.4,30.03,ENE,76,0.0,0.0,90,0.00,CLR,,0.00,0.0,WeatherDisplay:10.37,2013-09-24 05:28:00,
2013-09-24 00:33:00,50.1,47.3,30.03,ENE,76,0.0,0.0,90,0.00,CLR,,0.00,0.0,WeatherDisplay:10.37,2013-09-24 05:33:00,
2013-09-24 00:38:00,49.9,47.1,30.03,ENE,76,0.0,0.0,90,0.00,CLR,,0.00,0.0,WeatherDisplay:10.37,2013-09-24 05:38:00,
2013-09-24 00:43:00,49.8,47.0,30.03,ENE,76,0.0,0.0,90,0.00,CLR,,0.00,0.0,WeatherDisplay:10.37,2013-09-24 05:43:00,
2013-09-24 00:48:00,49.8,47.0,30.03,ENE,76,0.0,0.0,90,0.00,CLR,,0.00,0.0,WeatherDisplay:10.37,2013-09-24 05:48:00,
2013-09-24 00:53:00,49.6,47.1,30.03,ENE,76,0.0,0.0,91,0.00,CLR,,0.00,0.0,WeatherDisplay:10.37,2013-09-24 05:53:00,
2013-09-24 00:58:00,49.4,46.9,30.03,ENE,76,0.0,0.0,91,0.00,CLR,,0.00,0.0,WeatherDisplay:10.37,2013-09-24 05:58:00,
2013-09-24 01:03:00,49.2,46.7,30.02,ENE,76,0.0,0.0,91,0.00,CLR,,0.00,0.0,WeatherDisplay:10.37,2013-09-24 06:03:00,
2013-09-24 01:08:00,49.2,46.7,30.02,East,82,0.0,0.0,91,0.00,CLR,,0.00,0.0,WeatherDisplay:10.37,2013-09-24 06:08:00,
2013-09-24 01:13:00,49.1,46.6,30.02,East,82,0.0,0.0,91,0.00,CLR,,0.00,0.0,WeatherDisplay:10.37,2013-09-24 06:13:00,
2013-09-24 01:18:00,48.9,46.7,30.02,East,82,0.0,0.0,92,0.00,CLR,,0.00,0.0,WeatherDisplay:10.37,2013-09-24 06:18:00,
2013-09-24 01:23:00,48.9,46.7,30.02,East,82,0.0,0.0,92,0.00,CLR,,0.00,0.0,WeatherDisplay:10.37,2013-09-24 06:23:00,
2013-09-24 01:28:00,48.6,46.4,30.02,East,82,0.0,0.0,92,0.00,CLR,,0.00,0.0,WeatherDisplay:10.37,2013-09-24 06:28:00,
2013-09-24 01:33:00,48.5,46.3,30.03,East,82,0.0,0.0,92,0.00,CLR,,0.00,0.0,WeatherDisplay:10.37,2013-09-24 06:33:00,
2013-09-24 01:38:00,48.3,46.1,30.03,East,82,0.0,0.0,92,0.00,CLR,,0.00,0.0,WeatherDisplay:10.37,2013-09-24 06:38:00,
2013-09-24 01:43:00,48.3,46.1,30.03,East,82,0.0,0.0,92,0.00,CLR,,0.00,0.0,WeatherDisplay:10.37,2013-09-24 06:43:00,
2013-09-24 01:48:00,48.2,46.0,30.02,East,82,0.0,0.0,92,0.00,CLR,,0.00,0.0,WeatherDisplay:10.37,2013-09-24 06:48:00,
2013-09-24 01:53:00,48.0,45.8,30.02,East,82,0.0,0.0,92,0.00,CLR,,0.00,0.0,WeatherDisplay:10.37,2013-09-24 06:53:00,
2013-09-24 01:58:00,47.7,45.5,30.02,East,82,0.0,0.0,92,0.00,CLR,,0.00,0.0,WeatherDisplay:10.37,2013-09-24 06:58:00,
2013-09-24 02:03:00,47.6,45.7,30.02,East,82,0.0,0.0,93,0.00,CLR,,0.00,0.0,WeatherDisplay:10.37,2013-09-24 07:03:00,
2013-09-24 02:08:00,47.4,45.5,30.02,East,82,0.0,0.0,93,0.00,CLR,,0.00,0.0,WeatherDisplay:10.37,2013-09-24 07:08:00,
2013-09-24 02:13:00,47.6,45.7,30.02,East,82,0.0,0.0,93,0.00,CLR,,0.00,0.0,WeatherDisplay:10.37,2013-09-24 07:13:00,
2013-09-24 02:18:00,47.6,45.7,30.02,East,82,0.0,0.0,93,0.00,CLR,,0.00,0.0,WeatherDisplay:10.37,2013-09-24 07:18:00,
2013-09-24 02:23:00,47.6,45.7,30.02,East,82,0.0,0.0,93,0.00,CLR,,0.00,0.0,WeatherDisplay:10.37,2013-09-24 07:23:00,
2013-09-24 02:28:00,47.4,45.5,30.02,East,82,0.0,0.0,93,0.00,CLR,,0.00,0.0,WeatherDisplay:10.37,2013-09-24 07:28:00,
2013-09-24 02:33:00,47.3,45.4,30.02,East,82,0.0,0.0,93,0.00,CLR,,0.00,0.0,WeatherDisplay:10.37,2013-09-24 07:33:00,
2013-09-24 02:38:00,47.0,45.1,30.02,East,82,0.0,0.0,93,0.00,CLR,,0.00,0.0,WeatherDisplay:10.37,2013-09-24 07:38:00,
2013-09-24 02:43:00,46.8,44.9,30.02,East,82,0.0,0.0,93,0.00,CLR,,0.00,0.0,WeatherDisplay:10.37,2013-09-24 07:43:00,
2013-09-24 02:48:00,46.8,45.2,30.02,East,82,0.0,0.0,94,0.00,CLR,,0.00,0.0,WeatherDisplay:10.37,2013-09-24 07:48:00,
2013-09-24 02:53:00,46.8,45.2,30.02,East,82,0.0,0.0,94,0.00,CLR,,0.00,0.0,WeatherDisplay:10.37,2013-09-24 07:53:00,
2013-09-24 02:58:00,46.7,45.1,30.02,East,82,0.0,0.0,94,0.00,CLR,,0.00,0.0,WeatherDisplay:10.37,2013-09-24 07:58:00,
2013-09-24 03:03:00,46.5,44.9,30.02,East,82,0.0,0.0,94,0.00,CLR,,0.00,0.0,WeatherDisplay:10.37,2013-09-24 08:03:00,
2013-09-24 03:08:00,46.4,44.8,30.02,East,82,0.0,0.0,94,0.00,CLR,,0.00,0.0,WeatherDisplay:10.37,2013-09-24 08:08:00,
2013-09-24 03:13:00,46.2,44.6,30.02,East,82,0.0,0.0,94,0.00,CLR,,0.00,0.0,WeatherDisplay:10.37,2013-09-24 08:13:00,
2013-09-24 03:18:00,46.2,44.6,30.02,East,82,0.0,0.0,94,0.00,CLR,,0.00,0.0,WeatherDisplay:10.37,2013-09-24 08:18:00,
2013-09-24 03:23:00,46.1,44.5,30.02,East,82,0.0,0.0,94,0.00,CLR,,0.00,0.0,WeatherDisplay:10.37,2013-09-24 08:23:00,
2013-09-24 03:28:00,46.1,44.5,30.02,East,82,0.0,0.0,94,0.00,CLR,,0.00,0.0,WeatherDisplay:10.37,2013-09-24 08:28:00,
2013-09-24 03:33:00,46.0,44.4,30.02,East,82,0.0,0.0,94,0.00,CLR,,0.00,0.0,WeatherDisplay:10.37,2013-09-24 08:33:00,
2013-09-24 03:38:00,45.8,44.2,30.02,East,82,0.0,0.0,94,0.00,CLR,,0.00,0.0,WeatherDisplay:10.37,2013-09-24 08:38:00,
2013-09-24 03:43:00,45.7,44.1,30.02,East,82,0.0,0.0,94,0.00,CLR,,0.00,0.0,WeatherDisplay:10.37,2013-09-24 08:43:00,
2013-09-24 03:48:00,45.5,44.2,30.02,East,82,0.0,0.0,95,0.00,CLR,,0.00,0.0,WeatherDisplay:10.37,2013-09-24 08:48:00,
2013-09-24 03:53:00,45.4,44.1,30.02,East,82,0.0,0.0,95,0.00,CLR,,0.00,0.0,WeatherDisplay:10.37,2013-09-24 08:53:00,
2013-09-24 03:58:00,45.4,44.1,30.02,East,82,0.0,0.0,95,0.00,CLR,,0.00,0.0,WeatherDisplay:10.37,2013-09-24 08:58:00,
2013-09-24 04:03:00,45.2,43.9,30.02,East,82,0.0,0.0,95,0.00,CLR,,0.00,0.0,WeatherDisplay:10.37,2013-09-24 09:03:00,
2013-09-24 04:08:00,45.2,43.9,30.02,East,82,0.0,0.0,95,0.00,CLR,,0.00,0.0,WeatherDisplay:10.37,2013-09-24 09:08:00,
2013-09-24 04:13:00,45.1,43.8,30.02,East,82,0.0,0.0,95,0.00,CLR,,0.00,0.0,WeatherDisplay:10.37,2013-09-24 09:13:00,
2013-09-24 04:18:00,45.1,43.8,30.02,East,82,0.0,0.0,95,0.00,CLR,,0.00,0.0,WeatherDisplay:10.37,2013-09-24 09:18:00,
2013-09-24 04:23:00,45.1,43.8,30.02,East,82,0.0,0.0,95,0.00,CLR,,0.00,0.0,WeatherDisplay:10.37,2013-09-24 09:23:00,
2013-09-24 04:28:00,45.1,43.8,30.02,East,82,0.0,0.0,95,0.00,CLR,,0.00,0.0,WeatherDisplay:10.37,2013-09-24 09:28:00,
2013-09-24 04:33:00,45.1,43.8,30.02,East,82,0.0,0.0,95,0.00,CLR,,0.00,0.0,WeatherDisplay:10.37,2013-09-24 09:33:00,
2013-09-24 04:38:00,44.9,43.6,30.02,East,82,0.0,0.0,95,0.00,CLR,,0.00,0.0,WeatherDisplay:10.37,2013-09-24 09:38:00,
2013-09-24 04:43:00,44.8,43.5,30.02,East,82,0.0,0.0,95,0.00,CLR,,0.00,0.0,WeatherDisplay:10.37,2013-09-24 09:43:00,
2013-09-24 04:48:00,44.8,43.5,30.02,East,82,0.0,0.0,95,0.00,CLR,,0.00,0.0,WeatherDisplay:10.37,2013-09-24 09:48:00,
2013-09-24 04:53:00,44.8,43.7,30.02,East,82,0.0,0.0,96,0.00,CLR,,0.00,0.0,WeatherDisplay:10.37,2013-09-24 09:53:00,
2013-09-24 04:58:00,44.8,43.7,30.02,East,82,0.0,0.0,96,0.00,CLR,,0.00,0.0,WeatherDisplay:10.37,2013-09-24 09:58:00,
2013-09-24 05:03:00,44.8,43.7,30.02,East,82,0.0,0.0,96,0.00,CLR,,0.00,0.0,WeatherDisplay:10.37,2013-09-24 10:03:00,
2013-09-24 05:08:00,44.8,43.7,30.02,East,82,0.0,0.0,96,0.00,CLR,,0.00,0.0,WeatherDisplay:10.37,2013-09-24 10:08:00,
2013-09-24 05:13:00,44.8,43.7,30.02,East,82,0.0,0.0,96,0.00,CLR,,0.00,0.0,WeatherDisplay:10.37,2013-09-24 10:13:00,
2013-09-24 05:18:00,44.8,43.7,30.02,East,82,0.0,0.0,96,0.00,CLR,,0.00,0.0,WeatherDisplay:10.37,2013-09-24 10:18:00,
2013-09-24 05:23:00,44.6,43.5,30.02,East,82,0.0,0.0,96,0.00,CLR,,0.00,0.0,WeatherDisplay:10.37,2013-09-24 10:23:00,
2013-09-24 05:28:00,44.6,43.5,30.02,East,82,0.0,0.0,96,0.00,CLR,,0.00,0.0,WeatherDisplay:10.37,2013-09-24 10:28:00,
2013-09-24 05:33:00,44.5,43.4,30.02,East,82,0.0,0.0,96,0.00,CLR,,0.00,0.0,WeatherDisplay:10.37,2013-09-24 10:33:00,
2013-09-24 05:38:00,44.3,43.2,30.02,East,82,0.0,0.0,96,0.00,CLR,,0.00,0.0,WeatherDisplay:10.37,2013-09-24 10:38:00,
2013-09-24 05:43:00,44.3,43.2,30.02,East,82,0.0,0.0,96,0.00,CLR,,0.00,0.0,WeatherDisplay:10.37,2013-09-24 10:43:00,
2013-09-24 05:48:00,44.3,43.2,30.02,East,82,0.0,0.0,96,0.00,CLR,,0.00,0.0,WeatherDisplay:10.37,2013-09-24 10:48:00,
2013-09-24 05:53:00,44.3,43.2,30.02,East,82,0.0,0.0,96,0.00,CLR,,0.00,0.0,WeatherDisplay:10.37,2013-09-24 10:53:00,
2013-09-24 05:58:00,44.5,43.4,30.02,East,82,0.0,0.0,96,0.00,CLR,,0.00,0.0,WeatherDisplay:10.37,2013-09-24 10:58:00,
2013-09-24 06:03:00,44.5,43.4,30.02,East,82,0.0,0.0,96,0.00,CLR,,0.00,0.0,WeatherDisplay:10.37,2013-09-24 11:03:00,
2013-09-24 06:08:00,44.5,43.4,30.02,East,82,0.0,0.0,96,0.00,CLR,,0.00,0.0,WeatherDisplay:10.37,2013-09-24 11:08:00,
2013-09-24 06:13:00,44.3,43.2,30.02,East,82,0.0,0.0,96,0.00,CLR,,0.00,0.0,WeatherDisplay:10.37,2013-09-24 11:13:00,
2013-09-24 06:18:00,44.3,43.2,30.02,East,82,0.0,0.0,96,0.00,CLR,,0.00,0.0,WeatherDisplay:10.37,2013-09-24 11:18:00,
2013-09-24 06:23:00,44.3,43.2,30.02,East,82,0.0,0.0,96,0.00,CLR,,0.00,0.0,WeatherDisplay:10.37,2013-09-24 11:23:00,
2013-09-24 06:28:00,44.3,43.2,30.02,East,82,0.0,0.0,96,0.00,CLR,,0.00,0.0,WeatherDisplay:10.37,2013-09-24 11:28:00,
2013-09-24 06:33:00,44.5,43.4,30.02,East,82,0.0,0.0,96,0.00,CLR,,0.00,0.0,WeatherDisplay:10.37,2013-09-24 11:33:00,
2013-09-24 06:38:00,44.5,43.4,30.02,East,82,0.0,0.0,96,0.00,CLR,,0.00,0.0,WeatherDisplay:10.37,2013-09-24 11:38:00,
2013-09-24 06:43:00,44.6,43.5,30.02,East,82,0.0,0.0,96,0.00,CLR,,0.00,0.0,WeatherDisplay:10.37,2013-09-24 11:43:00,
2013-09-24 07:27:00,45.7,44.9,30.03,East,83,0.0,1.0,97,0.00,CLR,,0.00,32.0,WeatherDisplay:10.37,2013-09-24 12:27:00,
2013-09-24 07:32:00,45.8,45.0,30.03,East,83,0.0,0.0,97,0.00,CLR,,0.00,26.0,WeatherDisplay:10.37,2013-09-24 12:32:00,
2013-09-24 07:37:00,45.8,45.0,30.03,East,83,0.0,3.0,97,0.00,CLR,,0.00,39.0,WeatherDisplay:10.37,2013-09-24 12:37:00,
2013-09-24 07:42:00,46.0,45.2,30.03,East,83,0.0,0.0,97,0.00,CLR,,0.00,40.0,WeatherDisplay:10.37,2013-09-24 12:42:00,
2013-09-24 07:47:00,46.1,45.3,30.03,East,83,0.1,1.1,97,0.00,CLR,,0.00,44.0,WeatherDisplay:10.37,2013-09-24 12:47:00,
2013-09-24 07:52:00,46.2,45.4,30.03,East,83,0.0,0.0,97,0.00,CLR,,0.00,63.0,WeatherDisplay:10.37,2013-09-24 12:52:00,
2013-09-24 07:57:00,46.2,45.4,30.03,East,83,0.0,0.0,97,0.00,CLR,,0.00,62.0,WeatherDisplay:10.37,2013-09-24 12:57:00,
2013-09-24 08:02:00,46.5,45.7,30.02,East,83,0.0,0.0,97,0.00,CLR,,0.00,60.0,WeatherDisplay:10.37,2013-09-24 13:02:00,
2013-09-24 08:07:00,46.8,46.0,30.02,East,83,0.0,0.0,97,0.00,CLR,,0.00,65.0,WeatherDisplay:10.37,2013-09-24 13:07:00,
2013-09-24 08:12:00,46.8,46.0,30.02,East,83,0.0,0.0,97,0.00,CLR,,0.00,58.0,WeatherDisplay:10.37,2013-09-24 13:12:00,
2013-09-24 08:17:00,47.0,46.2,30.02,East,83,0.0,1.0,97,0.00,CLR,,0.00,72.0,WeatherDisplay:10.37,2013-09-24 13:17:00,
2013-09-24 08:22:00,47.0,46.2,30.02,East,83,0.0,0.0,97,0.00,CLR,,0.00,72.0,WeatherDisplay:10.37,2013-09-24 13:22:00,
2013-09-24 08:27:00,47.1,46.6,30.02,East,83,0.0,0.0,98,0.00,CLR,,0.00,74.0,WeatherDisplay:10.37,2013-09-24 13:27:00,
2013-09-24 08:32:00,47.1,46.3,30.03,East,83,0.1,1.2,97,0.00,CLR,,0.00,104.0,WeatherDisplay:10.37,2013-09-24 13:32:00,
2013-09-24 08:37:00,47.4,46.9,30.03,East,84,0.0,1.0,98,0.00,CLR,,0.00,98.0,WeatherDisplay:10.37,2013-09-24 13:37:00,
2013-09-24 08:42:00,47.6,47.1,30.03,East,84,0.0,0.0,98,0.00,CLR,,0.00,104.0,WeatherDisplay:10.37,2013-09-24 13:42:00,
2013-09-24 08:47:00,47.6,47.1,30.03,East,84,0.0,0.0,98,0.00,CLR,,0.00,105.0,WeatherDisplay:10.37,2013-09-24 13:47:00,
2013-09-24 08:52:00,47.7,47.2,30.03,East,84,0.0,0.0,98,0.00,CLR,,0.00,109.0,WeatherDisplay:10.37,2013-09-24 13:52:00,
2013-09-24 08:57:00,47.9,47.4,30.03,East,84,0.0,2.0,98,0.00,CLR,,0.00,123.0,WeatherDisplay:10.37,2013-09-24 13:57:00,
2013-09-24 09:02:00,48.3,47.8,30.03,East,84,0.0,0.0,98,0.00,CLR,,0.00,148.0,WeatherDisplay:10.37,2013-09-24 14:02:00,
2013-09-24 09:07:00,48.6,48.1,30.03,East,84,0.0,0.0,98,0.00,CLR,,0.00,188.0,WeatherDisplay:10.37,2013-09-24 14:07:00,
2013-09-24 09:12:00,48.9,48.4,30.03,East,80,0.0,0.0,98,0.00,CLR,,0.00,179.0,WeatherDisplay:10.37,2013-09-24 14:12:00,
2013-09-24 09:17:00,49.2,48.7,30.03,East,80,0.0,0.0,98,0.00,CLR,,0.00,146.0,WeatherDisplay:10.37,2013-09-24 14:17:00,
2013-09-24 09:22:00,49.5,49.0,30.03,East,80,0.0,0.0,98,0.00,CLR,,0.00,188.0,WeatherDisplay:10.37,2013-09-24 14:22:00,
2013-09-24 09:27:00,49.6,49.1,30.03,East,91,0.0,2.0,98,0.00,CLR,,0.00,192.0,WeatherDisplay:10.37,2013-09-24 14:27:00,
2013-09-24 09:32:00,49.9,49.4,30.03,ENE,71,0.0,1.2,98,0.00,CLR,,0.00,244.0,WeatherDisplay:10.37,2013-09-24 14:32:00,
2013-09-24 09:37:00,50.1,49.6,30.03,East,83,0.0,0.0,98,0.00,CLR,,0.00,246.0,WeatherDisplay:10.37,2013-09-24 14:37:00,
2013-09-24 09:42:00,50.8,50.3,30.03,ENE,71,0.0,1.2,98,0.00,CLR,,0.00,469.0,WeatherDisplay:10.37,2013-09-24 14:42:00,
2013-09-24 09:47:00,51.6,51.4,30.03,East,90,0.0,1.0,99,0.00,CLR,,0.00,454.0,WeatherDisplay:10.37,2013-09-24 14:47:00,
2013-09-24 09:52:00,51.9,51.4,30.03,SSW,194,0.0,0.0,98,0.00,CLR,,0.00,471.0,WeatherDisplay:10.37,2013-09-24 14:52:00,
2013-09-24 09:57:00,52.3,51.5,30.03,South,187,0.0,5.0,97,0.00,CLR,,0.00,494.0,WeatherDisplay:10.37,2013-09-24 14:57:00,
2013-09-24 10:02:00,53.1,52.0,30.03,South,190,0.1,1.1,96,0.00,CLR,,0.00,520.0,WeatherDisplay:10.37,2013-09-24 15:02:00,
2013-09-24 10:07:00,53.9,52.5,30.03,South,186,0.0,0.0,95,0.00,CLR,,0.00,534.0,WeatherDisplay:10.37,2013-09-24 15:07:00,
2013-09-24 10:12:00,54.5,52.2,30.03,South,186,0.0,1.2,92,0.00,CLR,,0.00,554.0,WeatherDisplay:10.37,2013-09-24 15:12:00,
2013-09-24 10:17:00,55.2,52.1,30.02,ESE,109,0.0,3.0,89,0.00,CLR,,0.00,563.0,WeatherDisplay:10.37,2013-09-24 15:17:00,
2013-09-24 10:22:00,56.6,52.5,30.02,ENE,65,0.0,0.0,86,0.00,CLR,,0.00,580.0,WeatherDisplay:10.37,2013-09-24 15:22:00,
2013-09-24 10:27:00,57.5,52.4,30.02,ENE,60,0.0,1.0,83,0.00,CLR,,0.00,589.0,WeatherDisplay:10.37,2013-09-24 15:27:00,
2013-09-24 10:32:00,58.4,52.3,30.02,ESE,119,0.0,0.0,80,0.00,CLR,,0.00,598.0,WeatherDisplay:10.37,2013-09-24 15:32:00,
2013-09-24 10:37:00,59.2,52.7,30.02,East,97,0.0,0.0,79,0.00,CLR,,0.00,610.0,WeatherDisplay:10.37,2013-09-24 15:37:00,
2013-09-24 10:42:00,59.6,52.4,30.02,South,189,0.2,1.1,77,0.00,CLR,,0.00,619.0,WeatherDisplay:10.37,2013-09-24 15:42:00,
2013-09-24 10:47:00,60.5,52.5,30.02,NE,49,0.0,0.0,75,0.00,CLR,,0.00,629.0,WeatherDisplay:10.37,2013-09-24 15:47:00,
2013-09-24 10:52:00,61.6,53.6,30.02,NE,49,0.0,0.0,75,0.00,CLR,,0.00,640.0,WeatherDisplay:10.37,2013-09-24 15:52:00,
2013-09-24 10:57:00,61.8,53.1,30.02,East,83,0.0,0.0,73,0.00,CLR,,0.00,650.0,WeatherDisplay:10.37,2013-09-24 15:57:00,
2013-09-24 11:02:00,62.9,53.4,30.02,ENE,60,0.0,1.1,71,0.00,CLR,,0.00,656.0,WeatherDisplay:10.37,2013-09-24 16:02:00,
2013-09-24 11:07:00,63.2,53.3,30.02,ENE,60,1.0,5.0,70,0.00,CLR,,0.00,664.0,WeatherDisplay:10.37,2013-09-24 16:07:00,
2013-09-24 11:12:00,63.7,53.7,30.02,ENE,59,0.1,2.3,70,0.00,CLR,,0.00,671.0,WeatherDisplay:10.37,2013-09-24 16:12:00,
2013-09-24 11:17:00,63.6,53.2,30.02,ENE,74,0.0,5.0,69,0.00,CLR,,0.00,679.0,WeatherDisplay:10.37,2013-09-24 16:17:00,
2013-09-24 11:22:00,64.5,54.1,30.02,ENE,63,0.0,0.0,69,0.00,CLR,,0.00,682.0,WeatherDisplay:10.37,2013-09-24 16:22:00,
2013-09-24 11:27:00,65.0,53.4,30.02,ENE,69,0.0,6.0,66,0.00,CLR,,0.00,691.0,WeatherDisplay:10.37,2013-09-24 16:27:00,
2013-09-24 11:32:00,65.2,54.0,30.01,SSW,212,0.0,0.0,67,0.00,CLR,,0.00,694.0,WeatherDisplay:10.37,2013-09-24 16:32:00,
2013-09-24 11:37:00,65.9,54.6,30.01,SE,131,0.0,1.0,67,0.00,CLR,,0.00,717.0,WeatherDisplay:10.37,2013-09-24 16:37:00,
2013-09-24 11:42:00,66.1,52.7,30.01,SSE,154,0.1,1.2,62,0.00,CLR,,0.00,722.0,WeatherDisplay:10.37,2013-09-24 16:42:00,
2013-09-24 11:47:00,66.4,53.4,30.00,SSE,163,0.1,1.2,63,0.00,CLR,,0.00,710.0,WeatherDisplay:10.37,2013-09-24 16:47:00,
2013-09-24 11:52:00,66.8,53.8,30.00,SSE,154,0.1,1.2,63,0.00,CLR,,0.00,580.0,WeatherDisplay:10.37,2013-09-24 16:52:00,
2013-09-24 11:57:00,67.3,53.4,30.00,SE,133,0.0,3.0,61,0.00,CLR,,0.00,737.0,WeatherDisplay:10.37,2013-09-24 16:57:00,
2013-09-24 12:02:00,68.1,54.6,30.00,East,96,0.0,1.2,62,0.00,CLR,,0.00,733.0,WeatherDisplay:10.37,2013-09-24 17:02:00,
2013-09-24 12:07:00,67.9,52.6,30.00,ENE,62,1.0,7.0,58,0.00,CLR,,0.00,735.0,WeatherDisplay:10.37,2013-09-24 17:07:00,
2013-09-24 12:12:00,68.1,52.8,30.00,East,96,1.0,6.9,58,0.00,CLR,,0.00,747.0,WeatherDisplay:10.37,2013-09-24 17:12:00,
2013-09-24 12:17:00,68.6,52.3,30.00,ENE,69,0.6,3.3,56,0.00,CLR,,0.00,745.0,WeatherDisplay:10.37,2013-09-24 17:17:00,
2013-09-24 12:22:00,68.4,52.1,30.00,South,190,0.8,4.4,56,0.00,CLR,,0.00,742.0,WeatherDisplay:10.37,2013-09-24 17:22:00,
2013-09-24 12:27:00,69.1,53.2,30.00,South,174,1.0,7.0,57,0.00,CLR,,0.00,738.0,WeatherDisplay:10.37,2013-09-24 17:27:00,
2013-09-24 12:32:00,69.1,52.2,30.00,NE,46,1.4,6.6,55,0.00,CLR,,0.00,742.0,WeatherDisplay:10.37,2013-09-24 17:32:00,
2013-09-24 12:37:00,69.9,53.0,30.00,SSW,198,0.0,0.0,55,0.00,CLR,,0.00,740.0,WeatherDisplay:10.37,2013-09-24 17:37:00,
2013-09-24 12:42:00,70.6,52.6,30.00,ESE,115,0.1,1.2,53,0.00,CLR,,0.00,742.0,WeatherDisplay:10.37,2013-09-24 17:42:00,
2013-09-24 12:47:00,70.6,52.1,30.00,ENE,75,0.0,0.0,52,0.00,CLR,,0.00,740.0,WeatherDisplay:10.37,2013-09-24 17:47:00,
2013-09-24 12:52:00,70.8,52.3,30.00,East,95,0.1,1.2,52,0.00,CLR,,0.00,726.0,WeatherDisplay:10.37,2013-09-24 17:52:00,
2013-09-24 12:57:00,70.3,51.8,30.00,ENE,64,0.0,8.1,52,0.00,CLR,,0.00,737.0,WeatherDisplay:10.37,2013-09-24 17:57:00,
2013-09-24 13:02:00,70.3,51.8,30.00,SSE,155,2.6,5.8,52,0.00,CLR,,0.00,726.0,WeatherDisplay:10.37,2013-09-24 18:02:00,
2013-09-24 13:07:00,70.4,52.4,30.00,South,173,0.0,0.0,53,0.00,CLR,,0.00,705.0,WeatherDisplay:10.37,2013-09-24 18:07:00,
2013-09-24 13:12:00,70.8,52.3,30.00,SE,134,0.0,0.0,52,0.00,CLR,,0.00,731.0,WeatherDisplay:10.37,2013-09-24 18:12:00,
2013-09-24 13:17:00,71.1,53.6,30.00,East,96,0.0,2.3,54,0.00,CLR,,0.00,733.0,WeatherDisplay:10.37,2013-09-24 18:17:00,
2013-09-24 13:22:00,71.3,51.7,30.00,NNW,333,0.0,1.2,50,0.00,CLR,,0.00,728.0,WeatherDisplay:10.37,2013-09-24 18:22:00,
2013-09-24 13:27:00,71.5,51.3,30.00,SSW,201,3.1,8.1,49,0.00,CLR,,0.00,726.0,WeatherDisplay:10.37,2013-09-24 18:27:00,
2013-09-24 13:32:00,71.5,52.4,29.99,SE,141,3.7,9.9,51,0.00,CLR,,0.00,708.0,WeatherDisplay:10.37,2013-09-24 18:32:00,
2013-09-24 13:37:00,71.5,51.9,29.99,South,186,1.7,7.7,50,0.00,CLR,,0.00,715.0,WeatherDisplay:10.37,2013-09-24 18:37:00,
2013-09-24 13:42:00,71.6,52.5,29.99,South,181,0.0,0.0,51,0.00,CLR,,0.00,703.0,WeatherDisplay:10.37,2013-09-24 18:42:00,
2013-09-24 13:47:00,71.6,51.4,29.99,SSE,163,0.2,2.2,49,0.00,CLR,,0.00,714.0,WeatherDisplay:10.37,2013-09-24 18:47:00,
2013-09-24 13:52:00,71.8,52.2,29.99,ENE,65,0.0,1.1,50,0.00,CLR,,0.00,693.0,WeatherDisplay:10.37,2013-09-24 18:52:00,
2013-09-24 13:57:00,72.1,51.3,29.99,ENE,66,0.0,8.0,48,0.00,CLR,,0.00,689.0,WeatherDisplay:10.37,2013-09-24 18:57:00,
2013-09-24 14:02:00,71.6,50.3,29.99,NW,306,0.0,0.0,47,0.00,CLR,,0.00,554.0,WeatherDisplay:10.37,2013-09-24 19:02:00,
2013-09-24 14:07:00,71.8,51.6,29.99,East,88,0.6,2.3,49,0.00,CLR,,0.00,700.0,WeatherDisplay:10.37,2013-09-24 19:07:00,
2013-09-24 14:12:00,72.7,50.1,29.99,South,171,1.7,6.6,45,0.00,CLR,,0.00,689.0,WeatherDisplay:10.37,2013-09-24 19:12:00,
2013-09-24 14:17:00,72.7,51.3,29.99,South,171,1.7,5.5,47,0.00,CLR,,0.00,679.0,WeatherDisplay:10.37,2013-09-24 19:17:00,
2013-09-24 14:22:00,72.5,51.1,29.99,East,81,0.0,1.2,47,0.00,CLR,,0.00,670.0,WeatherDisplay:10.37,2013-09-24 19:22:00,
2013-09-24 14:27:00,73.2,51.2,29.99,SE,127,0.0,1.0,46,0.00,CLR,,0.00,663.0,WeatherDisplay:10.37,2013-09-24 19:27:00,
2013-09-24 14:32:00,73.0,52.1,29.98,SSE,161,0.1,2.3,48,0.00,CLR,,0.00,657.0,WeatherDisplay:10.37,2013-09-24 19:32:00,
2013-09-24 14:37:00,72.8,50.8,29.98,South,169,0.0,9.0,46,0.00,CLR,,0.00,647.0,WeatherDisplay:10.37,2013-09-24 19:37:00,
2013-09-24 14:42:00,73.7,51.0,29.98,SSE,157,0.1,1.1,45,0.00,CLR,,0.00,643.0,WeatherDisplay:10.37,2013-09-24 19:42:00,
2013-09-24 14:47:00,73.3,50.7,29.98,South,189,0.9,4.6,45,0.00,CLR,,0.00,631.0,WeatherDisplay:10.37,2013-09-24 19:47:00,
2013-09-24 14:52:00,73.2,51.8,29.98,East,79,0.4,3.5,47,0.00,CLR,,0.00,621.0,WeatherDisplay:10.37,2013-09-24 19:52:00,
2013-09-24 14:57:00,73.9,51.8,29.98,SSW,199,0.0,3.0,46,0.00,CLR,,0.00,606.0,WeatherDisplay:10.37,2013-09-24 19:57:00,
2013-09-24 15:02:00,73.7,51.6,29.98,ENE,75,0.1,1.2,46,0.00,CLR,,0.00,594.0,WeatherDisplay:10.37,2013-09-24 20:02:00,
2013-09-24 15:07:00,72.8,50.8,29.98,East,84,1.0,5.8,46,0.00,CLR,,0.00,585.0,WeatherDisplay:10.37,2013-09-24 20:07:00,
2013-09-24 15:12:00,72.3,51.5,29.98,ENE,77,1.3,5.8,48,0.00,CLR,,0.00,577.0,WeatherDisplay:10.37,2013-09-24 20:12:00,
2013-09-24 15:17:00,73.3,51.8,29.97,SSW,194,0.2,1.1,47,0.00,CLR,,0.00,564.0,WeatherDisplay:10.37,2013-09-24 20:17:00,
2013-09-24 15:22:00,73.2,50.6,29.97,SSE,147,0.0,7.0,45,0.00,CLR,,0.00,555.0,WeatherDisplay:10.37,2013-09-24 20:22:00,
2013-09-24 15:27:00,73.3,52.4,29.97,North,360,2.6,7.7,48,0.00,CLR,,0.00,552.0,WeatherDisplay:10.37,2013-09-24 20:27:00,
2013-09-24 15:32:00,72.8,51.4,29.97,ENE,78,0.7,4.6,47,0.00,CLR,,0.00,541.0,WeatherDisplay:10.37,2013-09-24 20:32:00,
2013-09-24 15:37:00,72.5,51.1,29.97,East,90,0.1,2.3,47,0.00,CLR,,0.00,534.0,WeatherDisplay:10.37,2013-09-24 20:37:00,
2013-09-24 15:42:00,73.3,51.8,29.97,ENE,67,0.4,2.2,47,0.00,CLR,,0.00,519.0,WeatherDisplay:10.37,2013-09-24 20:42:00,
2013-09-24 15:47:00,73.3,51.3,29.97,ESE,109,0.0,0.0,46,0.00,CLR,,0.00,504.0,WeatherDisplay:10.37,2013-09-24 20:47:00,
2013-09-24 15:52:00,73.3,50.7,29.97,SE,128,0.0,2.3,45,0.00,CLR,,0.00,487.0,WeatherDisplay:10.37,2013-09-24 20:52:00,
2013-09-24 15:57:00,73.7,49.8,29.97,SSE,151,0.1,1.2,43,0.00,CLR,,0.00,476.0,WeatherDisplay:10.37,2013-09-24 20:57:00,
2013-09-24 16:02:00,74.4,51.7,29.97,NE,40,0.0,1.1,45,0.00,CLR,,0.00,468.0,WeatherDisplay:10.37,2013-09-24 21:02:00,
2013-09-24 16:07:00,74.4,51.1,29.97,East,97,0.1,1.2,44,0.00,CLR,,0.00,462.0,WeatherDisplay:10.37,2013-09-24 21:07:00,
2013-09-24 16:12:00,74.0,50.7,29.97,NE,38,0.1,1.2,44,0.00,CLR,,0.00,455.0,WeatherDisplay:10.37,2013-09-24 21:12:00,
2013-09-24 16:17:00,73.2,50.0,29.97,East,90,0.1,1.2,44,0.00,CLR,,0.00,452.0,WeatherDisplay:10.37,2013-09-24 21:17:00,
2013-09-24 16:22:00,73.5,50.9,29.97,ESE,103,0.0,2.3,45,0.00,CLR,,0.00,439.0,WeatherDisplay:10.37,2013-09-24 21:22:00,
2013-09-24 16:27:00,73.9,51.2,29.97,East,82,0.0,0.0,45,0.00,CLR,,0.00,427.0,WeatherDisplay:10.37,2013-09-24 21:27:00,
2013-09-24 16:32:00,74.2,50.9,29.96,ENE,67,0.1,1.1,44,0.00,CLR,,0.00,413.0,WeatherDisplay:10.37,2013-09-24 21:32:00,
2013-09-24 16:37:00,73.9,51.8,29.96,East,93,0.0,0.0,46,0.00,CLR,,0.00,401.0,WeatherDisplay:10.37,2013-09-24 21:37:00,
2013-09-24 16:42:00,73.5,50.2,29.96,ENE,74,1.8,6.9,44,0.00,CLR,,0.00,385.0,WeatherDisplay:10.37,2013-09-24 21:42:00,
2013-09-24 16:47:00,73.3,50.7,29.97,East,94,3.4,8.1,45,0.00,CLR,,0.00,364.0,WeatherDisplay:10.37,2013-09-24 21:47:00,
2013-09-24 16:52:00,73.3,50.7,29.97,ENE,67,0.0,1.2,45,0.00,CLR,,0.00,336.0,WeatherDisplay:10.37,2013-09-24 21:52:00,
2013-09-24 16:57:00,73.7,52.2,29.97,ENE,67,0.0,0.0,47,0.00,CLR,,0.00,309.0,WeatherDisplay:10.37,2013-09-24 21:57:00,
2013-09-24 17:02:00,72.8,51.4,29.96,South,188,0.7,4.6,47,0.00,CLR,,0.00,308.0,WeatherDisplay:10.37,2013-09-24 22:02:00,
2013-09-24 17:07:00,72.5,51.1,29.96,East,99,0.0,0.0,47,0.00,CLR,,0.00,279.0,WeatherDisplay:10.37,2013-09-24 22:07:00,
2013-09-24 17:12:00,72.3,50.4,29.96,NE,44,0.0,0.0,46,0.00,CLR,,0.00,255.0,WeatherDisplay:10.37,2013-09-24 22:12:00,
2013-09-24 17:17:00,72.3,50.4,29.96,NE,52,0.5,3.5,46,0.00,CLR,,0.00,243.0,WeatherDisplay:10.37,2013-09-24 22:17:00,
2013-09-24 17:22:00,72.1,51.3,29.96,NNE,14,0.0,0.0,48,0.00,CLR,,0.00,193.0,WeatherDisplay:10.37,2013-09-24 22:22:00,
2013-09-24 17:27:00,71.8,51.0,29.96,NE,48,0.5,2.2,48,0.00,CLR,,0.00,46.0,WeatherDisplay:10.37,2013-09-24 22:27:00,
2013-09-24 17:32:00,71.3,51.1,29.96,East,88,1.1,5.8,49,0.00,CLR,,0.00,40.0,WeatherDisplay:10.37,2013-09-24 22:32:00,
2013-09-24 17:37:00,70.9,51.3,29.96,ENE,76,0.0,0.0,50,0.00,CLR,,0.00,35.0,WeatherDisplay:10.37,2013-09-24 22:37:00,
2013-09-24 17:42:00,70.8,51.8,29.96,East,83,0.0,0.0,51,0.00,CLR,,0.00,32.0,WeatherDisplay:10.37,2013-09-24 22:42:00,
2013-09-24 17:47:00,70.6,51.6,29.95,East,83,0.0,1.2,51,0.00,CLR,,0.00,32.0,WeatherDisplay:10.37,2013-09-24 22:47:00,
2013-09-24 17:52:00,70.3,51.8,29.95,East,98,0.4,4.6,52,0.00,CLR,,0.00,33.0,WeatherDisplay:10.37,2013-09-24 22:52:00,
2013-09-24 17:57:00,70.1,52.2,29.95,ESE,123,0.0,1.2,53,0.00,CLR,,0.00,28.0,WeatherDisplay:10.37,2013-09-24 22:57:00,
2013-09-24 18:02:00,69.8,51.9,29.96,ESE,120,0.0,0.0,53,0.00,CLR,,0.00,26.0,WeatherDisplay:10.37,2013-09-24 23:02:00,
2013-09-24 18:07:00,69.4,52.0,29.96,East,89,0.1,1.1,54,0.00,CLR,,0.00,25.0,WeatherDisplay:10.37,2013-09-24 23:07:00,
2013-09-24 18:12:00,69.3,51.9,29.96,East,84,0.0,0.0,54,0.00,CLR,,0.00,23.0,WeatherDisplay:10.37,2013-09-24 23:12:00,
2013-09-24 18:17:00,69.1,52.2,29.96,East,84,0.0,0.0,55,0.00,CLR,,0.00,19.0,WeatherDisplay:10.37,2013-09-24 23:17:00,
2013-09-24 18:22:00,68.8,52.0,29.96,NNE,25,0.7,4.6,55,0.00,CLR,,0.00,18.0,WeatherDisplay:10.37,2013-09-24 23:22:00,
2013-09-24 18:27:00,68.8,52.0,29.96,NNE,25,0.0,4.6,55,0.00,CLR,,0.00,18.0,WeatherDisplay:10.37,2013-09-24 23:27:00,
2013-09-24 18:32:00,68.3,52.0,29.96,East,81,0.0,0.0,56,0.00,CLR,,0.00,12.0,WeatherDisplay:10.37,2013-09-24 23:32:00,
2013-09-24 18:37:00,67.9,51.6,29.96,East,81,0.0,0.0,56,0.00,CLR,,0.00,11.0,WeatherDisplay:10.37,2013-09-24 23:37:00,
2013-09-24 18:42:00,67.6,52.3,29.96,East,81,0.0,0.0,58,0.00,CLR,,0.00,9.0,WeatherDisplay:10.37,2013-09-24 23:42:00,
2013-09-24 18:47:00,67.3,52.0,29.95,East,81,0.0,0.0,58,0.00,CLR,,0.00,7.0,WeatherDisplay:10.37,2013-09-24 23:47:00,
2013-09-24 18:52:00,66.8,52.0,29.95,East,81,0.0,0.0,59,0.00,CLR,,0.00,5.0,WeatherDisplay:10.37,2013-09-24 23:52:00,
2013-09-24 18:57:00,66.4,52.1,29.95,East,81,0.1,1.1,60,0.00,CLR,,0.00,0.0,WeatherDisplay:10.37,2013-09-24 23:57:00,
2013-09-24 19:02:00,66.1,52.3,29.95,East,81,0.0,0.0,61,0.00,CLR,,0.00,0.0,WeatherDisplay:10.37,2013-09-25 00:02:00,
2013-09-24 19:07:00,65.6,52.2,29.95,ENE,78,0.0,1.2,62,0.00,CLR,,0.00,0.0,WeatherDisplay:10.37,2013-09-25 00:07:00,
2013-09-24 19:12:00,65.5,52.6,29.95,ENE,77,0.0,0.0,63,0.00,CLR,,0.00,0.0,WeatherDisplay:10.37,2013-09-25 00:12:00,
2013-09-24 19:17:00,65.2,52.7,29.95,ENE,77,0.0,0.0,64,0.00,CLR,,0.00,0.0,WeatherDisplay:10.37,2013-09-25 00:17:00,
2013-09-24 19:22:00,64.8,52.8,29.95,ENE,77,0.0,1.1,65,0.00,CLR,,0.00,0.0,WeatherDisplay:10.37,2013-09-25 00:22:00,
2013-09-24 19:27:00,64.5,52.5,29.95,ENE,77,0.0,0.0,65,0.00,CLR,,0.00,0.0,WeatherDisplay:10.37,2013-09-25 00:27:00,
2013-09-24 19:32:00,64.2,52.6,29.96,East,82,0.0,0.0,66,0.00,CLR,,0.00,0.0,WeatherDisplay:10.37,2013-09-25 00:32:00,
2013-09-24 19:37:00,63.9,52.7,29.96,East,82,0.0,0.0,67,0.00,CLR,,0.00,0.0,WeatherDisplay:10.37,2013-09-25 00:37:00,
2013-09-24 19:42:00,63.5,52.7,29.96,ENE,78,0.0,0.0,68,0.00,CLR,,0.00,0.0,WeatherDisplay:10.37,2013-09-25 00:42:00,
2013-09-24 19:47:00,63.2,52.9,29.97,ENE,78,0.0,0.0,69,0.00,CLR,,0.00,0.0,WeatherDisplay:10.37,2013-09-25 00:47:00,
2013-09-24 19:52:00,62.6,52.7,29.97,ENE,78,0.0,0.0,70,0.00,CLR,,0.00,0.0,WeatherDisplay:10.37,2013-09-25 00:52:00,
2013-09-24 19:57:00,62.3,52.8,29.97,ENE,78,0.0,0.0,71,0.00,CLR,,0.00,0.0,WeatherDisplay:10.37,2013-09-25 00:57:00,
2013-09-24 20:02:00,62.0,52.5,29.97,ENE,78,0.0,0.0,71,0.00,CLR,,0.00,0.0,WeatherDisplay:10.37,2013-09-25 01:02:00,
2013-09-24 20:07:00,61.6,52.5,29.97,ENE,78,0.0,0.0,72,0.00,CLR,,0.00,0.0,WeatherDisplay:10.37,2013-09-25 01:07:00,
2013-09-24 20:12:00,61.3,52.6,29.97,ENE,78,0.0,0.0,73,0.00,CLR,,0.00,0.0,WeatherDisplay:10.37,2013-09-25 01:12:00,
2013-09-24 20:17:00,60.9,52.2,29.97,ENE,78,0.0,0.0,73,0.00,CLR,,0.00,0.0,WeatherDisplay:10.37,2013-09-25 01:17:00,
2013-09-24 20:22:00,60.5,52.2,29.97,ENE,78,0.0,0.0,74,0.00,CLR,,0.00,0.0,WeatherDisplay:10.37,2013-09-25 01:22:00,
2013-09-24 20:27:00,60.2,52.2,29.97,ENE,78,0.0,0.0,75,0.00,CLR,,0.00,0.0,WeatherDisplay:10.37,2013-09-25 01:27:00,
2013-09-24 20:32:00,60.1,52.5,29.97,ENE,78,0.0,0.0,76,0.00,CLR,,0.00,0.0,WeatherDisplay:10.37,2013-09-25 01:32:00,
2013-09-24 20:37:00,59.9,52.3,29.97,ENE,78,0.0,0.0,76,0.00,CLR,,0.00,0.0,WeatherDisplay:10.37,2013-09-25 01:37:00,
2013-09-24 20:42:00,59.8,52.6,29.97,ENE,78,0.0,0.0,77,0.00,CLR,,0.00,0.0,WeatherDisplay:10.37,2013-09-25 01:42:00,
2013-09-24 20:47:00,59.6,52.4,29.97,ENE,78,0.0,0.0,77,0.00,CLR,,0.00,0.0,WeatherDisplay:10.37,2013-09-25 01:47:00,
2013-09-24 20:52:00,59.5,52.6,29.97,ENE,78,0.0,0.0,78,0.00,CLR,,0.00,0.0,WeatherDisplay:10.37,2013-09-25 01:52:00,
2013-09-24 20:57:00,59.3,52.4,29.97,ENE,78,0.0,0.0,78,0.00,CLR,,0.00,0.0,WeatherDisplay:10.37,2013-09-25 01:57:00,
2013-09-24 21:02:00,59.2,52.3,29.97,ENE,78,0.0,0.0,78,0.00,CLR,,0.00,0.0,WeatherDisplay:10.37,2013-09-25 02:02:00,
2013-09-24 21:07:00,59.0,52.5,29.97,ENE,78,0.0,0.0,79,0.00,CLR,,0.00,0.0,WeatherDisplay:10.37,2013-09-25 02:07:00,
2013-09-24 21:12:00,58.9,52.4,29.97,ENE,78,0.0,0.0,79,0.00,CLR,,0.00,0.0,WeatherDisplay:10.37,2013-09-25 02:12:00,
2013-09-24 21:17:00,58.6,52.1,29.98,ENE,78,0.0,0.0,79,0.00,CLR,,0.00,0.0,WeatherDisplay:10.37,2013-09-25 02:17:00,
2013-09-24 21:22:00,58.3,52.2,29.98,ENE,78,0.0,0.0,80,0.00,CLR,,0.00,0.0,WeatherDisplay:10.37,2013-09-25 02:22:00,
2013-09-24 21:27:00,58.1,52.0,29.98,ENE,78,0.0,0.0,80,0.00,CLR,,0.00,0.0,WeatherDisplay:10.37,2013-09-25 02:27:00,
2013-09-24 21:32:00,58.0,52.2,29.98,ENE,78,0.1,1.2,81,0.00,CLR,,0.00,0.0,WeatherDisplay:10.37,2013-09-25 02:32:00,
2013-09-24 21:37:00,57.8,52.0,29.98,ENE,75,0.0,1.1,81,0.00,CLR,,0.00,0.0,WeatherDisplay:10.37,2013-09-25 02:37:00,
2013-09-24 21:42:00,57.6,51.8,29.98,ENE,76,0.0,0.0,81,0.00,CLR,,0.00,0.0,WeatherDisplay:10.37,2013-09-25 02:42:00,
2013-09-24 21:47:00,57.5,51.7,29.98,ENE,67,0.0,0.0,81,0.00,CLR,,0.00,0.0,WeatherDisplay:10.37,2013-09-25 02:47:00,
2013-09-24 21:52:00,57.2,51.8,29.98,ENE,64,0.0,0.0,82,0.00,CLR,,0.00,0.0,WeatherDisplay:10.37,2013-09-25 02:52:00,
2013-09-24 21:57:00,57.0,51.6,29.98,NE,56,0.0,0.0,82,0.00,CLR,,0.00,0.0,WeatherDisplay:10.37,2013-09-25 02:57:00,
2013-09-24 22:02:00,56.9,51.8,29.98,ENE,57,0.1,1.2,83,0.00,CLR,,0.00,0.0,WeatherDisplay:10.37,2013-09-25 03:02:00,
2013-09-24 22:07:00,56.7,51.6,29.98,SE,126,0.0,0.0,83,0.00,CLR,,0.00,0.0,WeatherDisplay:10.37,2013-09-25 03:07:00,
2013-09-24 22:12:00,56.6,51.5,29.98,SE,126,0.0,0.0,83,0.00,CLR,,0.00,0.0,WeatherDisplay:10.37,2013-09-25 03:12:00,
2013-09-24 22:17:00,56.5,51.4,29.98,SE,126,0.0,0.0,83,0.00,CLR,,0.00,0.0,WeatherDisplay:10.37,2013-09-25 03:17:00,
2013-09-24 22:22:00,56.3,51.2,29.98,SE,126,0.0,0.0,83,0.00,CLR,,0.00,0.0,WeatherDisplay:10.37,2013-09-25 03:22:00,
2013-09-24 22:27:00,56.2,51.1,29.98,SE,126,0.0,0.0,83,0.00,CLR,,0.00,0.0,WeatherDisplay:10.37,2013-09-25 03:27:00,
2013-09-24 22:32:00,55.9,51.1,29.98,SE,126,0.0,0.0,84,0.00,CLR,,0.00,0.0,WeatherDisplay:10.37,2013-09-25 03:32:00,
2013-09-24 22:37:00,55.7,50.9,29.98,SE,126,0.0,0.0,84,0.00,CLR,,0.00,0.0,WeatherDisplay:10.37,2013-09-25 03:37:00,
2013-09-24 22:42:00,55.6,50.8,29.98,SE,126,0.0,0.0,84,0.00,CLR,,0.00,0.0,WeatherDisplay:10.37,2013-09-25 03:42:00,
2013-09-24 22:47:00,55.3,50.5,29.98,SE,126,0.0,0.0,84,0.00,CLR,,0.00,0.0,WeatherDisplay:10.37,2013-09-25 03:47:00,
2013-09-24 22:53:00,55.1,50.7,29.98,ESE,123,0.0,0.0,85,0.00,CLR,,0.00,0.0,WeatherDisplay:10.37,2013-09-25 03:53:00,
2013-09-24 22:58:00,54.8,50.4,29.98,ESE,123,0.0,0.0,85,0.00,CLR,,0.00,0.0,WeatherDisplay:10.37,2013-09-25 03:58:00,
2013-09-24 23:01:00,54.7,50.3,29.97,ESE,123,0.0,0.0,85,0.00,CLR,,0.00,0.0,WeatherDisplay:10.37,2013-09-25 04:01:00,
2013-09-24 23:02:00,54.7,50.3,29.97,ESE,123,0.0,0.0,85,0.00,CLR,,0.00,0.0,WeatherDisplay:10.37,2013-09-25 04:02:00,
2013-09-24 23:07:00,54.5,50.4,29.97,ESE,123,0.0,0.0,86,0.00,CLR,,0.00,0.0,WeatherDisplay:10.37,2013-09-25 04:07:00,
2013-09-24 23:12:00,54.4,50.3,29.97,ESE,123,0.0,0.0,86,0.00,CLR,,0.00,0.0,WeatherDisplay:10.37,2013-09-25 04:12:00,
2013-09-24 23:17:00,54.2,50.1,29.97,ESE,123,0.0,0.0,86,0.00,CLR,,0.00,0.0,WeatherDisplay:10.37,2013-09-25 04:17:00,
2013-09-24 23:22:00,54.1,50.3,29.97,ESE,123,0.0,0.0,87,0.00,CLR,,0.00,0.0,WeatherDisplay:10.37,2013-09-25 04:22:00,
2013-09-24 23:27:00,53.9,50.1,29.97,ESE,123,0.0,0.0,87,0.00,CLR,,0.00,0.0,WeatherDisplay:10.37,2013-09-25 04:27:00,
2013-09-24 23:33:00,53.8,50.0,29.97,ESE,123,0.0,0.0,87,0.00,CLR,,0.00,0.0,WeatherDisplay:10.37,2013-09-25 04:33:00,
2013-09-24 23:38:00,53.6,50.1,29.97,ESE,123,0.0,0.0,88,0.00,CLR,,0.00,0.0,WeatherDisplay:10.37,2013-09-25 04:38:00,
2013-09-24 23:43:00,53.5,50.0,29.97,ESE,123,0.0,0.0,88,0.00,CLR,,0.00,0.0,WeatherDisplay:10.37,2013-09-25 04:43:00,
2013-09-24 23:48:00,53.3,49.8,29.97,ESE,123,0.0,0.0,88,0.00,CLR,,0.00,0.0,WeatherDisplay:10.37,2013-09-25 04:48:00,
2013-09-24 23:53:00,53.1,49.9,29.97,ESE,123,0.0,0.0,89,0.00,CLR,,0.00,0.0,WeatherDisplay:10.37,2013-09-25 04:53:00,
2013-09-24 23:58:00,53.1,49.9,29.97,ESE,123,0.0,0.0,89,0.00,CLR,,0.00,0.0,WeatherDisplay:10.37,2013-09-25 04:58:00,